Weather History for KOSC - June, 2013

Change the Weather History Date:

Sunday, June 23, 2013

  Actual Average Record
Temperature  
Mean Temperature 74 °F -  
Max Temperature 91 °F 75 °F 91 °F (2002)
Min Temperature 56 °F 54 °F 44 °F (2007)
Cooling Degree Days 8    
Growing Degree Days 24 (Base 50)    
Moisture  
Dew Point 63 °F    
Average Humidity 72    
Maximum Humidity 99    
Minimum Humidity 38    
Precipitation  
Precipitation 0.00 in - - ()
Sea Level Pressure  
Sea Level Pressure 29.97 in    
Wind  
Wind Speed 5 mph (SW)    
Max Wind Speed 17 mph    
Max Gust Speed 22 mph    
Visibility 8 miles    
Events Fog    
Averages and records for this station are not official NWS values.
T = Trace of Precipitation, MM = Missing Value Source: NWS Daily Summary

Daily Weather History Graph

Daily Weather History Graph

Search for Another Location

Airport or City:

Trip Planner

Search our weather history database for the weather conditions in past years. The results will help you decide how hot, cold, wet, or windy it might be!

Date:

Astronomy

Jun. 23, 2013 Rise Set
Actual Time 5:49 AM EDT 9:22 PM EDT
Civil Twilight 5:12 AM EDT 9:58 PM EDT
Nautical Twilight 4:24 AM EDT 10:47 PM EDT
Astronomical Twilight 3:20 AM EDT 11:50 PM EDT
Moon 9:29 PM EDT (6/23) 6:08 AM EDT (6/23)
Length of Visible Light 16h 46m
Length of Day
15h 32m
Full, 100% of the Moon is Illuminated
Jun 23
Full
Jun 30
Last Quarter
Jul 8
New
Jul 15
First Quarter
Jul 22
Full

Hourly Weather History & Observations

Time (EDT) Temp. Heat Index Dew Point Humidity Pressure Visibility Wind Dir Wind Speed Gust Speed Precip Events Conditions
12:14 AM 59.0 °F - 57.4 °F 94% 30.06 in 10.0 mi NNE 6.9 mph - N/A   Overcast
12:34 AM 58.5 °F - 57.4 °F 96% 30.05 in 7.0 mi NNE 4.6 mph - N/A   Overcast
12:53 AM 58.5 °F - 57.6 °F 97% 30.04 in 7.0 mi NNE 3.5 mph - N/A   Overcast
1:14 AM 58.5 °F - 57.6 °F 97% 30.04 in 7.0 mi Calm Calm - N/A   Overcast
1:34 AM 58.6 °F - 58.1 °F 98% 30.04 in 5.0 mi Calm Calm - N/A   Overcast
1:53 AM 58.5 °F - 57.7 °F 97% 30.03 in 1.8 mi Calm Calm - N/A   Overcast
2:14 AM 58.5 °F - 58.1 °F 99% 30.02 in 0.8 mi Calm Calm - N/A   Overcast
2:34 AM 58.3 °F - 57.7 °F 98% 30.01 in 0.5 mi Calm Calm - N/A Fog Fog
2:53 AM 58.1 °F - 57.6 °F 98% 30.02 in 0.5 mi Calm Calm - N/A Fog Fog
3:14 AM 58.1 °F - 57.6 °F 98% 30.03 in 0.2 mi West 3.5 mph - N/A Fog Fog
3:34 AM 57.7 °F - 57.4 °F 99% 30.02 in 0.5 mi Calm Calm - N/A Fog Fog
3:53 AM 57.6 °F - 57.2 °F 99% 30.02 in 0.2 mi Calm Calm - N/A Fog Fog
4:14 AM 57.2 °F - 56.7 °F 98% 30.02 in 0.5 mi Calm Calm - N/A Fog Fog
4:34 AM 57.4 °F - 57.2 °F 99% 30.02 in 1.2 mi Calm Calm - N/A   Overcast
4:53 AM 57.2 °F - 57.0 °F 99% 30.02 in 5.0 mi Calm Calm - N/A   Mostly Cloudy
5:14 AM 56.7 °F - 56.3 °F 99% 30.01 in 5.0 mi Calm Calm - N/A   Clear
5:34 AM 56.5 °F - 56.3 °F 99% 30.00 in 3.0 mi Calm Calm - N/A   Clear
5:53 AM 56.7 °F - 56.3 °F 99% 29.99 in 4.0 mi Calm Calm - N/A   Clear
6:14 AM 56.3 °F - 55.8 °F 98% 30.00 in 3.0 mi Calm Calm - N/A   Clear
6:34 AM 56.3 °F - 56.1 °F 99% 30.01 in 4.0 mi Calm Calm - N/A   Scattered Clouds
6:54 AM 57.2 °F - 56.7 °F 98% 30.00 in 4.0 mi Calm Calm - N/A   Mostly Cloudy
7:14 AM 58.5 °F - 57.9 °F 98% 30.00 in 7.0 mi Calm Calm - N/A   Overcast
7:34 AM 59.7 °F - 58.6 °F 96% 29.99 in 10.0 mi Calm Calm - N/A   Mostly Cloudy
7:54 AM 60.4 °F - 59.0 °F 95% 30.00 in 10.0 mi Calm Calm - N/A   Scattered Clouds
8:14 AM 61.9 °F - 59.9 °F 93% 30.00 in 10.0 mi South 3.5 mph - N/A   Clear
8:34 AM 63.5 °F - 60.8 °F 91% 29.99 in 10.0 mi South 3.5 mph - N/A   Clear
8:54 AM 65.5 °F - 61.7 °F 88% 29.97 in 10.0 mi SSE 5.8 mph - N/A   Clear
9:14 AM 67.5 °F - 61.9 °F 82% 29.97 in 10.0 mi SE 4.6 mph - N/A   Clear
9:33 AM 69.6 °F - 63.5 °F 81% 29.96 in 10.0 mi South 6.9 mph - N/A   Clear
9:54 AM 70.5 °F - 64.9 °F 82% 29.97 in 7.0 mi SSW 8.1 mph - N/A   Mostly Cloudy
10:14 AM 70.3 °F - 65.3 °F 84% 29.97 in 5.0 mi SSW 8.1 mph - N/A   Haze
10:33 AM 72.5 °F - 66.6 °F 82% 29.97 in 5.0 mi SW 9.2 mph - N/A   Haze
10:54 AM 75.9 °F - 67.3 °F 74% 29.97 in 7.0 mi SSW 11.5 mph - N/A   Scattered Clouds
11:14 AM 78.8 °F - 67.8 °F 69% 29.98 in 10.0 mi SW 8.1 mph - N/A   Clear
11:33 AM 80.4 °F 83.1 °F 68.0 °F 66% 29.98 in 10.0 mi SSW 8.1 mph - N/A   Clear
11:54 AM 81.3 °F 84.3 °F 68.4 °F 65% 29.98 in 10.0 mi SSW 8.1 mph - N/A   Clear
12:14 PM 84.7 °F 87.6 °F 67.5 °F 56% 29.97 in 10.0 mi SW 10.4 mph 16.1 mph N/A   Clear
12:33 PM 83.7 °F 86.5 °F 67.6 °F 58% 29.97 in 10.0 mi SW 17.3 mph 21.9 mph N/A   Scattered Clouds
12:54 PM 86.5 °F 89.3 °F 67.3 °F 52% 29.97 in 10.0 mi SW 17.3 mph - N/A   Scattered Clouds
1:14 PM 84.2 °F 86.8 °F 66.9 °F 56% 29.96 in 10.0 mi West 16.1 mph 19.6 mph N/A   Scattered Clouds
1:33 PM 87.6 °F 90.1 °F 66.6 °F 49% 29.96 in 10.0 mi West 16.1 mph - N/A   Scattered Clouds
1:54 PM 88.0 °F 90.7 °F 66.4 °F 49% 29.96 in 10.0 mi WSW 13.8 mph 21.9 mph N/A   Clear
2:14 PM 89.1 °F 91.3 °F 65.8 °F 46% 29.95 in 10.0 mi WSW 12.7 mph - N/A   Scattered Clouds
2:33 PM 90.0 °F 92.8 °F 66.4 °F 46% 29.95 in 10.0 mi WSW 9.2 mph 19.6 mph N/A   Scattered Clouds
2:54 PM 90.3 °F 92.6 °F 65.8 °F 44% 29.94 in 10.0 mi SSW 13.8 mph 20.7 mph N/A   Scattered Clouds
3:14 PM 90.7 °F 92.4 °F 64.9 °F 42% 29.94 in 10.0 mi SW 13.8 mph 18.4 mph N/A   Scattered Clouds
3:33 PM 89.1 °F 91.0 °F 65.3 °F 45% 29.94 in 10.0 mi West 16.1 mph - N/A   Mostly Cloudy
3:54 PM 90.1 °F 91.2 °F 63.7 °F 41% 29.94 in 10.0 mi North - - N/A   Overcast
4:14 PM 91.0 °F 91.5 °F 62.4 °F 38% 29.94 in 10.0 mi SW 13.8 mph - N/A   Scattered Clouds
4:33 PM 89.6 °F 90.4 °F 63.1 °F 41% 29.94 in 10.0 mi North - - N/A   Scattered Clouds
4:54 PM 89.8 °F 91.4 °F 64.4 °F 43% 29.94 in 10.0 mi WSW 15.0 mph - N/A   Mostly Cloudy
5:14 PM 87.1 °F 88.9 °F 65.5 °F 48% 29.94 in 10.0 mi North - - N/A   Mostly Cloudy
5:34 PM 86.9 °F 89.3 °F 66.4 °F 50% 29.94 in 10.0 mi West 11.5 mph 16.1 mph N/A   Scattered Clouds
5:54 PM 87.8 °F 90.4 °F 66.6 °F 49% 29.93 in 10.0 mi North - - N/A   Mostly Cloudy
6:14 PM 87.6 °F 90.1 °F 66.2 °F 49% 29.92 in 10.0 mi WSW 10.4 mph - N/A   Scattered Clouds
6:34 PM 87.6 °F 90.1 °F 66.6 °F 49% 29.91 in 10.0 mi SW 10.4 mph - N/A   Clear
6:54 PM 87.8 °F 90.4 °F 66.6 °F 49% 29.91 in 10.0 mi SW 9.2 mph - N/A   Clear
7:13 PM 87.6 °F 90.1 °F 66.0 °F 49% 29.91 in 10.0 mi SSW 11.5 mph - N/A   Scattered Clouds
7:34 PM 87.1 °F 89.5 °F 66.6 °F 50% 29.91 in 10.0 mi SSW 8.1 mph - N/A   Scattered Clouds
7:54 PM 86.0 °F 89.4 °F 68.0 °F 55% 29.91 in 10.0 mi South 9.2 mph - N/A   Scattered Clouds
8:13 PM 83.5 °F 86.4 °F 68.0 °F 59% 29.91 in 10.0 mi South 8.1 mph - N/A   Clear
8:34 PM 82.0 °F 84.7 °F 67.3 °F 61% 29.91 in 10.0 mi South 5.8 mph - N/A   Clear
8:54 PM 81.3 °F 83.5 °F 66.2 °F 60% 29.92 in 10.0 mi SW 5.8 mph - N/A   Clear
9:13 PM 80.2 °F 82.1 °F 65.3 °F 60% 29.92 in 10.0 mi SW 4.6 mph - N/A   Clear
9:34 PM 79.3 °F - 64.6 °F 60% 29.93 in 7.0 mi SW 4.6 mph - N/A   Clear
9:54 PM 78.8 °F - 64.6 °F 62% 29.94 in 7.0 mi SSW 5.8 mph - N/A   Clear
10:13 PM 79.5 °F - 63.5 °F 58% 29.94 in 10.0 mi SSW 8.1 mph - N/A   Clear
10:34 PM 77.9 °F - 63.1 °F 60% 29.95 in 10.0 mi WSW 5.8 mph - N/A   Clear
10:54 PM 77.4 °F - 63.0 °F 61% 29.95 in 10.0 mi SSW 4.6 mph - N/A   Clear
11:13 PM 77.0 °F - 62.8 °F 61% 29.95 in 10.0 mi SW 5.8 mph - N/A   Clear
11:34 PM 74.1 °F - 63.5 °F 69% 29.95 in 10.0 mi WSW 3.5 mph - N/A   Clear
11:54 PM 72.5 °F - 63.5 °F 73% 29.95 in 10.0 mi WSW 3.5 mph - N/A   Clear